This is the latest recevied weather packets stored in our database for station/object IZ1GCT. If no packets are shown the sender has not sent any weather packets the latest 10 day(s).
| Time | Temp. | Humidity | Pressure | Rain* | Wind** | Luminosity | Snow |
|---|---|---|---|---|---|---|---|
| 1777729253 | 21.67° C | 41% | 1024.7 hPa | 0 mm | - | - | - |
| 1777728954 | 21.67° C | 41% | 1024.7 hPa | 0 mm | - | - | - |
| 1777728653 | 21.67° C | 41% | 1024.7 hPa | 0 mm | - | - | - |
| 1777728353 | 22.22° C | 40% | 1024.9 hPa | 0 mm | - | - | - |
| 1777728054 | 22.22° C | 41% | 1024.9 hPa | 0 mm | - | - | - |
| 1777727753 | 21.67° C | 41% | 1025 hPa | 0 mm | - | - | - |
| 1777727453 | 21.67° C | 41% | 1024.9 hPa | 0 mm | - | - | - |
| 1777727154 | 21.67° C | 42% | 1025.2 hPa | 0 mm | - | - | - |
| 1777726853 | 21.67° C | 42% | 1025.1 hPa | 0 mm | - | - | - |
| 1777726553 | 21.67° C | 41% | 1025.2 hPa | 0 mm | - | - | - |
| 1777726254 | 21.67° C | 40% | 1025 hPa | 0 mm | - | - | - |
| 1777725953 | 22.22° C | 42% | 1025.2 hPa | 0 mm | - | - | - |
| 1777725653 | 21.67° C | 41% | 1025.2 hPa | 0 mm | - | - | - |
| 1777725354 | 21.67° C | 41% | 1025.1 hPa | 0 mm | - | - | - |
| 1777725054 | 21.67° C | 41% | 1025.2 hPa | 0 mm | - | - | - |
| 1777724753 | 21.11° C | 42% | 1025.2 hPa | 0 mm | - | - | - |
| 1777724453 | 21.67° C | 41% | 1025.4 hPa | 0 mm | - | - | - |
| 1777724153 | 21.67° C | 42% | 1025.5 hPa | 0 mm | - | - | - |
| 1777723854 | 21.67° C | 41% | 1025.4 hPa | 0 mm | - | - | - |
| 1777723553 | 21.11° C | 41% | 1025.6 hPa | 0 mm | - | - | - |
| 1777723253 | 21.11° C | 41% | 1025.6 hPa | 0 mm | - | - | - |
| 1777722954 | 21.11° C | 41% | 1025.6 hPa | 0 mm | - | - | - |
| 1777722653 | 21.11° C | 41% | 1025.8 hPa | 0 mm | - | - | - |
| 1777722353 | 20.56° C | 41% | 1025.7 hPa | 0 mm | - | - | - |
| 1777722054 | 20.56° C | 41% | 1025.9 hPa | 0 mm | - | - | - |
* Rain latest hour (hover to see other rain measurements)
** Current wind speed in m/s (hover to see current wind gust speed)